Regional Weather Roundup
Issued by NWS

Home | Current Version | Previous Version | Graphics & Text | Print | Product List | Glossary On
Versions: 1 2 3 4 5 6 7 8 9 10 11 12 13 14 15 16 17 18 19 20 21 22 23 24 25 26 27 28
000
ASUS45 KSLC 231010
RWRUT

UTAH REGIONAL WEATHER ROUNDUP
NATIONAL WEATHER SERVICE SALT LAKE CITY UT
300 AM MST MON JAN 23 2017

UTZ001>011-023>025-231100-

NORTHERN UTAH

CITY           SKY/WX    TMP DP  RH WIND       PRES   REMARKS
BRIGHAM CITY     N/A     33  31  94 CALM      29.63F
HILL AFB       MOCLDY    33  32  97 SE6       29.59F FOG     WCI  27
LOGAN          LGT SNOW  29  29 100 CALM      29.62F VSB 3/4
OGDEN          MIX PCPN  32  32 100 SE3       29.60F
SALT LAKE CITY CLOUDY    39  30  70 SE16G25   29.59F WCI  30
TOOELE VALLEY  CLOUDY    41  32  70 S22G32    29.57F
WENDOVER       CLOUDY    28  27  93 CALM      29.57F
HEBER CITY     LGT SNOW  28  28 100 E5        29.61F WCI  23
WEST JORDAN    CLOUDY    35  35  99 SE20      29.61F WCI  24

$$

UTZ011>015-024>027-231100-

CENTRAL/NORTHEAST UTAH

CITY           SKY/WX    TMP DP  RH WIND       PRES   REMARKS
PROVO AIRPORT  MIX PCPN  33  31  92 S3        29.66F
MOAB/CANYONLAN CLOUDY    36  30  79 SE9       29.78F WCI  29
DELTA          MOCLDY    34  30  86 S16       29.64F WCI  23
PRICE          LGT SNOW  28  28 100 E6        29.72F FOG     WCI  22
RICHFIELD      MOCLDY    39  27  60 SW36G45   29.65F WCI  26
ROOSEVELT      LGT SNOW  25  23  93 CALM      29.78S
VERNAL         LGT SNOW  24  21  88 CALM      29.76F FOG

$$

UTZ013>016-019>022-027-231100-

SOUTHERN UTAH

CITY           SKY/WX    TMP DP  RH WIND       PRES   REMARKS
BRYCE CANYON   SNOW      25  23  92 SE18      29.75F VSB 1/2 WCI  11
CEDAR CITY     PTCLDY    33  29  85 SW21G32   29.63F WCI  21
MILFORD        MOCLDY    34  31  88 S24       29.62F WCI  21
ST GEORGE      CLOUDY    43  36  75 E8        29.78F
HANKSVILLE     MOCLDY    37  32  81 MISG      29.80F
BLANDING       CLOUDY    29  29 100 SE13      30.00F WCI  19

$$

REGIONAL REPORTS     COLORADO/ARIZONA

CITY           SKY/WX    TMP DP  RH WIND       PRES   REMARKS
CRAIG, CO      CLOUDY    28  20  71 E8        29.74R WCI  20
GRAND JUNCTION CLOUDY    35  29  78 SE16      29.83F WCI  25
RIFLE, CO      CLOUDY    29  27  92 E7        29.83S WCI  22
MONTROSE, CO   CLOUDY    29  27  92 CALM      29.89R
CORTEZ, CO     CLOUDY    32  26  78 VRB5      29.96R WCI  27
COLORADO CITY  CLOUDY    36  34  93 S14       29.82F WCI  27
PAGE, AZ       PTCLDY    40  29  64 S12       29.83F WCI  33
GRAND CANYON   CLOUDY    32  30  92 S20       29.87F WCI  20
KINGMAN, AZ    CLOUDY    49  35  58 S18G31    29.83F
FLAGSTAFF, AZ  LGT SNOW  29  28  96 SW14      29.93F VSB 1   WCI  18

$$

REGIONAL REPORTS    NEVADA/IDAHO/WYOMING

CITY           SKY/WX    TMP DP  RH WIND       PRES   REMARKS
LAS VEGAS, NV  MOCLDY    50  42  74 SE7       29.71F
ELY, NY        FLURRIES  34  27  75 S21G32    29.51F WCI  22
ELKO, NV       FLURRIES  33  31  92 N3        29.47S
POCATELLO, ID  CLOUDY    32  28  85 E7        29.59F WCI  26
BURLEY, ID     CLOUDY    31  29  92 CALM      29.54F
FORT BRIDGER,  LGT SNOW  19  19 100 CALM      29.66S
EVANSTON, WY   LGT SNOW  20  16  84 E9        29.59F FOG     WCI   9
ROCK SPRINGS,  CLOUDY    26  19  74 SW13      29.64S WCI  15

$$




USA.gov is the U.S. government's official web portal to all federal, state and local government web resources and services.